Date String (YYYY-MM-DD hh:mm:ss) UTC,Instrument flags,Ambient pressure (hPa),Sample flow (lpm),Bypass flow (lpm),Sample temperature (°C),Ambient temperature (°C),ASC tube jacket temperature (°C),LED temperature (°C),Box temperature (°C),Sample RH (%),Span deviation,Mass concentration (μg/m³),Mass concentration (μg/m³),Mass concentration (μg/m³)
DateTimeUTC,F1_M11,P_M11,Q1_M11,Q2_M11,T1_M11,T2_M11,T3_M11,T4_M11,T5_M11,U1_M11,ZSPAN_M11,X0_M11,X2_M11,X1_M11
2022-04-28 11:00:00,,0821.4,5.00,0.00,26.1,25.5,00.0,35.2,27.8,14.9,0001.7,0036.62,0010.21,0005.12
2022-04-28 11:01:00,,0821.4,4.99,0.00,26.1,25.5,00.0,35.2,27.8,14.8,0001.7,0036.85,0010.19,0005.11
2022-04-28 11:02:00,,0821.4,4.99,0.00,26.1,25.5,00.0,35.2,27.9,14.7,0001.5,0037.54,0010.26,0005.13
2022-04-28 11:03:00,,0821.4,5.01,0.00,26.1,25.5,00.0,35.2,27.8,14.5,0001.2,0038.62,0010.18,0005.14
2022-04-28 11:04:00,,0821.4,4.99,0.00,26.0,25.4,00.0,35.2,27.8,14.0,0000.9,0036.95,0009.97,0005.13
2022-04-28 11:05:00,,0821.4,5.00,0.00,26.0,25.4,00.0,35.1,27.8,13.6,0001.2,0035.21,0009.84,0005.13
2022-04-28 11:06:00,,0821.3,4.99,0.00,26.0,25.4,00.0,35.1,27.7,13.9,0001.3,0033.40,0009.71,0005.13
2022-04-28 11:07:00,,0821.4,5.00,0.00,26.0,25.4,00.0,35.1,27.7,13.9,0001.9,0031.78,0009.72,0005.13
2022-04-28 11:08:00,,0821.4,5.01,0.00,26.0,25.3,00.0,35.1,27.7,13.6,0001.8,0031.23,0009.72,0005.17
2022-04-28 11:09:00,,0821.4,5.00,0.00,25.9,25.3,00.0,35.1,27.7,13.8,0002.5,0030.49,0009.64,0005.18
2022-04-28 11:10:00,,0821.4,5.00,0.00,25.9,25.3,00.0,35.0,27.6,13.6,0003.4,0029.89,0009.71,0005.19
2022-04-28 11:11:00,,0821.4,4.99,0.00,25.9,25.2,00.0,35.0,27.6,13.4,0004.2,0029.24,0009.73,0005.23
2022-04-28 11:12:00,,0821.3,5.01,0.00,25.9,25.2,00.0,35.0,27.6,13.2,0004.5,0029.61,0009.80,0005.26
2022-04-28 11:13:00,,0821.3,5.00,0.00,25.9,25.2,00.0,35.0,27.6,13.0,0004.3,0029.79,0009.81,0005.30
2022-04-28 11:14:00,,0821.3,4.99,0.00,25.9,25.2,00.0,35.0,27.6,13.0,0003.6,0029.28,0009.84,0005.34
2022-04-28 11:15:00,,0821.3,5.00,0.00,25.9,25.3,00.0,35.0,27.6,13.1,0003.6,0029.21,0009.91,0005.36
2022-04-28 11:16:00,,0821.3,5.00,0.00,25.9,25.3,00.0,35.0,27.7,13.2,0002.7,0029.21,0010.02,0005.38
2022-04-28 11:17:00,,0821.3,5.01,0.00,25.9,25.4,00.0,35.0,27.7,13.2,0003.3,0028.61,0010.00,0005.40
2022-04-28 11:18:00,,0821.3,5.01,0.00,26.0,25.4,00.0,35.0,27.8,13.2,0003.4,0028.71,0009.97,0005.43
2022-04-28 11:19:00,,0821.3,5.00,0.00,26.0,25.4,00.0,35.0,27.8,13.3,0003.3,0028.74,0009.94,0005.41
2022-04-28 11:20:00,,0821.3,5.00,0.00,26.0,25.4,00.0,35.0,27.8,13.3,0002.9,0029.25,0009.98,0005.43
2022-04-28 11:21:00,,0821.3,5.00,0.00,26.0,25.4,00.0,35.0,27.8,13.3,0002.1,0028.93,0009.97,0005.44
2022-04-28 11:22:00,,0821.3,4.98,0.00,26.0,25.4,00.0,35.0,27.8,13.3,0002.0,0028.66,0009.96,0005.45
2022-04-28 11:23:00,,0821.3,5.00,0.00,26.0,25.4,00.0,35.0,27.8,13.5,0001.9,0027.59,0009.88,0005.45
2022-04-28 11:24:00,,0821.4,4.99,0.00,26.0,25.4,00.0,35.0,27.8,13.4,0003.0,0026.80,0009.70,0005.44
2022-04-28 11:25:00,,0821.4,5.00,0.00,26.0,25.4,00.0,35.0,27.8,13.5,0003.8,0025.69,0009.67,0005.45
2022-04-28 11:26:00,,0821.4,5.01,0.00,26.0,25.4,00.0,35.0,27.8,13.6,0004.1,0025.93,0009.65,0005.44
2022-04-28 11:27:00,,0821.4,5.00,0.00,26.0,25.5,00.0,35.0,27.9,13.8,0004.3,0025.94,0009.59,0005.43
2022-04-28 11:28:00,,0821.4,5.00,0.00,26.0,25.5,00.0,35.0,27.9,13.8,0003.9,0026.03,0009.51,0005.42
2022-04-28 11:29:00,,0821.4,4.99,0.00,26.0,25.5,00.0,35.0,27.9,13.9,0003.1,0027.18,0009.47,0005.41
2022-04-28 11:30:00,,0821.4,5.00,0.00,26.0,25.5,00.0,35.0,27.8,13.9,0003.4,0026.09,0009.48,0005.41
2022-04-28 11:31:00,,0821.4,5.00,0.00,26.0,25.5,00.0,35.0,27.8,13.8,0003.2,0025.81,0009.57,0005.40
2022-04-28 11:32:00,,0821.4,5.01,0.00,26.0,25.4,00.0,35.0,27.7,13.6,0003.3,0026.34,0009.55,0005.39
2022-04-28 11:33:00,,0821.4,4.99,0.00,26.0,25.4,00.0,35.0,27.7,13.5,0004.0,0026.80,0009.57,0005.39
2022-04-28 11:34:00,,0821.4,5.00,0.00,25.9,25.4,00.0,35.0,27.7,13.6,0003.9,0026.96,0009.58,0005.39
2022-04-28 11:35:00,,0821.4,4.99,0.00,25.9,25.3,00.0,34.9,27.6,13.7,0003.1,0026.88,0009.64,0005.39
2022-04-28 11:36:00,,0821.4,5.00,0.00,25.9,25.3,00.0,34.9,27.6,13.9,0003.4,0027.15,0009.59,0005.36
2022-04-28 11:37:00,,0821.4,5.02,0.00,25.9,25.3,00.0,34.9,27.6,14.0,0003.5,0026.68,0009.61,0005.35
2022-04-28 11:38:00,,0821.4,5.00,0.00,25.9,25.3,00.0,34.9,27.6,14.0,0003.5,0026.78,0009.68,0005.34
2022-04-28 11:39:00,,0821.4,5.00,0.00,25.9,25.3,00.0,34.9,27.6,13.9,0003.5,0026.38,0009.71,0005.35
2022-04-28 11:40:00,,0821.4,4.99,0.00,25.8,25.3,00.0,34.9,27.6,13.8,0003.4,0025.01,0009.72,0005.34
2022-04-28 11:41:00,,0821.4,4.99,0.00,25.8,25.2,00.0,34.9,27.6,13.6,0003.0,0025.44,0009.78,0005.33
2022-04-28 11:42:00,,0821.4,5.00,0.00,25.8,25.2,00.0,34.9,27.5,13.8,0002.9,0025.14,0009.80,0005.34
2022-04-28 11:43:00,,0821.3,5.00,0.00,25.8,25.1,00.0,34.9,27.5,14.0,0002.9,0026.26,0009.89,0005.34
2022-04-28 11:44:00,,0821.3,5.01,0.00,25.7,25.1,00.0,34.8,27.5,13.7,0001.7,0025.84,0009.80,0005.32
2022-04-28 11:45:00,,0821.3,5.01,0.00,25.7,25.1,00.0,34.8,27.4,13.2,0001.4,0025.36,0009.76,0005.32
2022-04-28 11:46:00,,0821.4,5.00,0.00,25.7,25.0,00.0,34.8,27.4,12.8,0001.2,0025.57,0009.76,0005.33
2022-04-28 11:47:00,,0821.4,4.99,0.00,25.7,25.0,00.0,34.8,27.4,12.6,0001.1,0025.01,0009.74,0005.34
2022-04-28 11:48:00,,0821.4,5.00,0.00,25.7,25.0,00.0,34.8,27.4,12.2,0000.4,0024.99,0009.66,0005.35
2022-04-28 11:49:00,,0821.4,5.00,0.00,25.6,24.9,00.0,34.8,27.3,11.9,0000.0,0024.52,0009.52,0005.37
2022-04-28 11:50:00,,0821.4,5.02,0.00,25.6,24.9,00.0,34.8,27.3,11.8,-000.6,0024.60,0009.53,0005.40
2022-04-28 11:51:00,,0821.4,5.00,0.00,25.6,24.9,00.0,34.7,27.3,11.8,-000.3,0024.84,0009.58,0005.42
2022-04-28 11:52:00,,0821.3,4.99,0.00,25.6,24.9,00.0,34.7,27.3,12.0,0000.0,0024.78,0009.51,0005.43
2022-04-28 11:53:00,,0821.4,5.00,0.00,25.5,24.9,00.0,34.7,27.3,12.3,0000.5,0025.27,0009.40,0005.44
2022-04-28 11:54:00,,0821.4,5.00,0.00,25.5,24.9,00.0,34.7,27.2,12.6,0000.9,0024.89,0009.29,0005.44
2022-04-28 11:55:00,,0821.3,5.00,0.00,25.5,24.9,00.0,34.7,27.3,13.0,0001.2,0024.77,0009.21,0005.44
2022-04-28 11:56:00,,0821.3,4.99,0.00,25.5,24.9,00.0,34.7,27.3,13.1,0001.2,0025.43,0009.27,0005.43
2022-04-28 11:57:00,,0821.4,4.99,0.00,25.6,25.0,00.0,34.6,27.3,13.3,0001.0,0025.06,0009.21,0005.41
2022-04-28 11:58:00,,0821.4,5.00,0.00,25.6,25.0,00.0,34.6,27.4,13.2,0000.2,0025.28,0009.28,0005.40
2022-04-28 11:59:00,,0821.4,5.00,0.00,25.6,25.0,00.0,34.6,27.4,13.2,0000.0,0025.41,0009.20,0005.38
